FW4443 Weather Reports


Display with metric or nautical units.
time (UTC)temp
F
wind
direction
speed
MPH
gust
MPH
rain 1hr
in
rain 24hr
in
rain mn
in
humidity
%
barometer
mb
20260903045247 85 203 7.0 21.0 0.00 0.00 0.00 9 1009.9
20260903044925 85 202 7.0 21.0 0.00 0.00 0.00 9 1009.8
20260903044607 85 148 7.0 21.0 0.00 0.00 0.00 9 1009.8
20260903044251 85 145 7.0 18.0 0.00 0.00 0.00 9 1009.9
20260903043933 85 164 8.0 18.0 0.00 0.00 0.00 9 1009.9
20260903043615 85 157 8.0 18.0 0.00 0.00 0.00 9 1009.9
20260903043254 85 159 7.0 13.0 0.00 0.00 0.00 9 1009.9
20260903042930 85 170 7.0 13.0 0.00 0.00 0.00 9 1009.9
20260903042610 85 112 6.0 11.0 0.00 0.00 0.00 10 1009.8
20260903042250 85 135 6.0 10.0 0.00 0.00 0.00 10 1009.7
20260903041929 85 156 5.0 10.0 0.00 0.00 0.00 9 1009.6
20260903041609 85 121 5.0 10.0 0.00 0.00 0.00 9 1009.6
20260903041247 85 130 5.0 11.0 0.00 0.00 0.00 10 1009.6
20260903040922 85 103 5.0 11.0 0.00 0.00 0.00 10 1009.5
20260903040602 85 103 6.0 11.0 0.00 0.00 0.00 10 1009.5
20260903040241 85 117 6.0 11.0 0.00 0.00 0.00 10 1009.5
20260903035924 85 142 5.0 11.0 0.00 0.00 0.00 9 1009.5
20260903035559 86 108 4.0 11.0 0.00 0.00 0.00 10 1009.4
20260903034638 86 111 4.0 11.0 0.00 0.00 0.00 9 1009.2
20260903034021 86 142 5.0 16.0 0.00 0.00 0.00 9 1009.0
20260903033704 86 169 7.0 16.0 0.00 0.00 0.00 9 1008.9
20260903033339 86 214 8.0 18.0 0.00 0.00 0.00 9 1009.0
20260903033021 86 190 7.0 18.0 0.00 0.00 0.00 8 1008.9
20260903032658 86 200 7.0 18.0 0.00 0.00 0.00 9 1008.9
20260903032334 86 196 7.0 18.0 0.00 0.00 0.00 8 1008.8
20260903032011 86 211 8.0 18.0 0.00 0.00 0.00 8 1008.9
20260903031350 87 205 9.0 17.0 0.00 0.00 0.00 8 1009.0
20260903031027 87 197 9.0 16.0 0.00 0.00 0.00 8 1008.9
20260903030405 87 229 9.0 21.0 0.00 0.00 0.00 8 1008.8
20260903025749 87 269 10.0 21.0 0.00 0.00 0.00 8 1008.8
20260903025433 87 157 10.0 21.0 0.00 0.00 0.00 8 1008.8
20260903024509 87 196 8.0 19.0 0.00 0.00 0.00 7 1008.9
20260903024144 87 223 7.0 15.0 0.00 0.00 0.00 7 1008.8
20260903023819 87 268 7.0 13.0 0.00 0.00 0.00 7 1008.8
20260903023504 88 234 7.0 14.0 0.00 0.00 0.00 7 1008.9
20260903023140 88 215 7.0 14.0 0.00 0.00 0.00 7 1008.9
20260903022823 88 248 7.0 14.0 0.00 0.00 0.00 7 1008.9
20260903022458 88 232 7.0 15.0 0.00 0.00 0.00 6 1009.0
20260903022138 88 225 6.0 15.0 0.00 0.00 0.00 7 1009.1
20260903021813 88 206 7.0 15.0 0.00 0.00 0.00 7 1009.1
20260903021457 89 207 7.0 15.0 0.00 0.00 0.00 6 1009.1
20260903020238 89 261 8.0 16.0 0.00 0.00 0.00 6 1009.2
20260903015924 89 171 7.0 16.0 0.00 0.00 0.00 5 1009.1
20260903015607 90 212 7.0 16.0 0.00 0.00 0.00 6 1009.3
20260903015245 90 214 8.0 16.0 0.00 0.00 0.00 6 1009.3
20260903014925 90 171 9.0 16.0 0.00 0.00 0.00 5 1009.2
20260903014602 90 193 9.0 15.0 0.00 0.00 0.00 5 1009.3
20260903013945 90 240 8.0 15.0 0.00 0.00 0.00 5 1009.4
20260903013621 90 198 8.0 15.0 0.00 0.00 0.00 5 1009.3
20260903012959 91 267 7.0 15.0 0.00 0.00 0.00 6 1009.4
20260903012643 91 219 8.0 18.0 0.00 0.00 0.00 5 1009.4
20260903012320 91 192 8.0 18.0 0.00 0.00 0.00 5 1009.3
20260903011958 91 201 8.0 18.0 0.00 0.00 0.00 5 1009.3
20260903011332 91 205 9.0 18.0 0.00 0.00 0.00 6 1009.4
20260903011007 91 195 9.0 18.0 0.00 0.00 0.00 5 1009.5
20260903010652 92 218 8.0 18.0 0.00 0.00 0.00 6 1009.3
20260903010337 92 244 9.0 18.0 0.00 0.00 0.00 5 1009.3
20260903010012 92 193 9.0 22.0 0.00 0.00 0.00 5 1009.3
20260903005647 92 207 9.0 22.0 0.00 0.00 0.00 5 1009.2
20260903005029 92 184 9.0 28.0 0.00 0.00 0.00 5 1009.2
20260903004411 92 163 9.0 28.0 0.00 0.00 0.00 5 1009.2
20260903004054 92 195 10.0 28.0 0.00 0.00 0.00 5 1009.2
20260903003734 93 190 10.0 28.0 0.00 0.00 0.00 5 1009.2
20260903003419 93 211 11.0 28.0 0.00 0.00 0.00 5 1009.2
20260903003104 93 146 10.0 21.0 0.00 0.00 0.00 5 1009.1
20260903002749 93 223 11.0 21.0 0.00 0.00 0.00 5 1009.1
20260903002425 93 200 10.0 21.0 0.00 0.00 0.00 5 1009.1
20260903002059 93 178 9.0 20.0 0.00 0.00 0.00 5 1009.1
20260903001736 93 246 8.0 20.0 0.00 0.00 0.00 5 1009.1
20260903001412 94 252 9.0 20.0 0.00 0.00 0.00 5 1009.1
20260903001052 94 200 9.0 23.0 0.00 0.00 0.00 5 1009.2
20260903000729 94 154 10.0 23.0 0.00 0.00 0.00 4 1009.2
20260903000410 94 224 10.0 23.0 0.00 0.00 0.00 4 1009.3
20260903000051 94 272 11.0 23.0 0.00 0.00 0.00 5 1009.4
20260902235426 94 192 10.0 23.0 0.00 0.00 0.00 4 1009.3
20260902235105 94 179 10.0 23.0 0.00 0.00 0.00 4 1009.4
20260902234747 95 195 11.0 23.0 0.00 0.00 0.00 5 1009.3
20260902234126 95 140 10.0 22.0 0.00 0.00 0.00 4 1009.2
20260902233804 95 145 10.0 25.0 0.00 0.00 0.00 4 1009.3
20260902233145 95 167 10.0 25.0 0.00 0.00 0.00 4 1009.4
20260902232521 95 166 10.0 25.0 0.00 0.00 0.00 4 1009.4
20260902232159 96 176 9.0 25.0 0.00 0.00 0.00 4 1009.4
20260902231844 96 200 9.0 21.0 0.00 0.00 0.00 4 1009.5
20260902231520 96 182 8.0 20.0 0.00 0.00 0.00 4 1009.3
20260902230857 96 196 10.0 23.0 0.00 0.00 0.00 4 1009.3
20260902230532 96 197 10.0 23.0 0.00 0.00 0.00 4 1009.4
20260902230209 96 208 10.0 23.0 0.00 0.00 0.00 4 1009.5
20260902224947 96 208 9.0 20.0 0.00 0.00 0.00 4 1009.6
20260902224631 96 248 8.0 20.0 0.00 0.00 0.00 4 1009.5
20260902224014 97 240 8.0 20.0 0.00 0.00 0.00 4 1009.5
20260902223658 96 197 10.0 20.0 0.00 0.00 0.00 4 1009.8
20260902223342 96 236 10.0 20.0 0.00 0.00 0.00 4 1009.8
20260902223016 96 252 11.0 20.0 0.00 0.00 0.00 4 1009.9
20260902222702 96 239 10.0 20.0 0.00 0.00 0.00 5 1009.9
20260902222347 96 253 10.0 20.0 0.00 0.00 0.00 4 1009.9
20260902222028 97 179 10.0 20.0 0.00 0.00 0.00 4 1010.0
20260902221711 96 225 9.0 20.0 0.00 0.00 0.00 5 1009.9
20260902221348 97 236 9.0 20.0 0.00 0.00 0.00 4 1010.1
20260902221025 96 246 8.0 20.0 0.00 0.00 0.00 4 1010.1
20260902220105 97 248 10.0 22.0 0.00 0.00 0.00 5 1010.1
20260902215751 96 252 10.0 22.0 0.00 0.00 0.00 5 1010.1
20260902215428 96 231 11.0 22.0 0.00 0.00 0.00 4 1010.1
20260902215106 96 250 10.0 22.0 0.00 0.00 0.00 4 1010.3
20260902214753 96 269 10.0 22.0 0.00 0.00 0.00 4 1010.4
20260902214433 97 258 9.0 18.0 0.00 0.00 0.00 4 1010.3
20260902214109 96 194 9.0 18.0 0.00 0.00 0.00 4 1010.3
20260902213444 96 246 10.0 21.0 0.00 0.00 0.00 4 1010.6
20260902212822 97 198 9.0 21.0 0.00 0.00 0.00 4 1010.7
20260902212157 96 233 8.0 21.0 0.00 0.00 0.00 4 1010.7
20260902211841 96 246 8.0 21.0 0.00 0.00 0.00 5 1010.7
20260902211515 96 225 10.0 21.0 0.00 0.00 0.00 4 1010.8
20260902211158 96 273 10.0 21.0 0.00 0.00 0.00 4 1010.9
20260902210836 96 192 10.0 21.0 0.00 0.00 0.00 4 1010.9
20260902210210 96 273 9.0 19.0 0.00 0.00 0.00 5 1010.9
20260902205545 96 227 8.0 19.0 0.00 0.00 0.00 4 1011.1
20260902204923 96 306 8.0 17.0 0.00 0.00 0.00 5 1011.1
20260902204607 96 238 8.0 27.0 0.00 0.00 0.00 5 1011.2
20260902204247 96 254 8.0 27.0 0.00 0.00 0.00 5 1011.2
20260902203933 96 227 8.0 27.0 0.00 0.00 0.00 4 1011.3
20260902203609 96 242 10.0 27.0 0.00 0.00 0.00 3 1011.3
20260902203255 96 237 11.0 27.0 0.00 0.00 0.00 3 1011.4
20260902202939 96 172 11.0 27.0 0.00 0.00 0.00 4 1011.4
20260902202620 96 188 11.0 23.0 0.00 0.00 0.00 3 1011.5
20260902202300 96 130 10.0 23.0 0.00 0.00 0.00 3 1011.4
20260902201938 95 186 11.0 23.0 0.00 0.00 0.00 4 1011.5
20260902201256 95 188 10.0 22.0 0.00 0.00 0.00 4 1011.5
20260902200940 96 225 9.0 22.0 0.00 0.00 0.00 4 1011.6
20260902200625 96 222 9.0 22.0 0.00 0.00 0.00 4 1011.7
20260902200001 95 211 10.0 20.0 0.00 0.00 0.00 4 1011.8
20260902195641 95 208 10.0 20.0 0.00 0.00 0.00 4 1011.8
20260902195314 94 175 10.0 20.0 0.00 0.00 0.00 4 1011.8
20260902194952 94 204 9.0 19.0 0.00 0.00 0.00 4 1011.8
20260902194628 94 211 9.0 20.0 0.00 0.00 0.00 4 1011.8
20260902194310 94 171 8.0 20.0 0.00 0.00 0.00 4 1011.8
20260902193944 94 211 8.0 20.0 0.00 0.00 0.00 4 1011.9
20260902193629 94 188 9.0 20.0 0.00 0.00 0.00 5 1012.0
20260902193303 93 163 10.0 20.0 0.00 0.00 0.00 5 1011.9
20260902192947 93 261 10.0 20.0 0.00 0.00 0.00 5 1012.1
20260902192626 93 215 9.0 19.0 0.00 0.00 0.00 4 1012.2
20260902192309 94 265 8.0 19.0 0.00 0.00 0.00 4 1012.1
20260902191043 93 217 10.0 22.0 0.00 0.00 0.00 4 1012.1
20260902190718 92 192 10.0 22.0 0.00 0.00 0.00 4 1012.1
20260902190352 92 219 9.0 22.0 0.00 0.00 0.00 5 1012.1
20260902190034 92 236 9.0 21.0 0.00 0.00 0.00 5 1012.2
20260902185412 92 285 10.0 21.0 0.00 0.00 0.00 4 1012.3
20260902185049 92 231 10.0 21.0 0.00 0.00 0.00 5 1012.3
20260902184727 92 193 10.0 21.0 0.00 0.00 0.00 6 1012.4
20260902184410 92 165 9.0 20.0 0.00 0.00 0.00 6 1012.4
20260902184052 92 189 9.0 20.0 0.00 0.00 0.00 6 1012.5
20260902183730 92 190 8.0 15.0 0.00 0.00 0.00 6 1012.4
20260902183103 92 198 7.0 15.0 0.00 0.00 0.00 6 1012.5
20260902182743 91 227 7.0 14.0 0.00 0.00 0.00 6 1012.4
20260902182121 91 188 7.0 16.0 0.00 0.00 0.00 6 1012.6
20260902181804 91 212 8.0 16.0 0.00 0.00 0.00 6 1012.6
20260902180844 90 248 8.0 16.0 0.00 0.00 0.00 5 1012.6
20260902180524 90 247 7.0 16.0 0.00 0.00 0.00 5 1012.6
20260902180205 91 219 8.0 17.0 0.00 0.00 0.00 6 1012.5
20260902175848 90 92 8.0 17.0 0.00 0.00 0.00 5 1012.6
20260902175527 90 174 9.0 17.0 0.00 0.00 0.00 6 1012.6
20260902174312 89 232 8.0 21.0 0.00 0.00 0.00 6 1012.6
20260902173646 89 225 10.0 21.0 0.00 0.00 0.00 7 1012.7
20260902173325 89 238 11.0 24.0 0.00 0.00 0.00 6 1012.6
20260902173003 88 210 11.0 24.0 0.00 0.00 0.00 6 1012.7
20260902172644 88 244 11.0 24.0 0.00 0.00 0.00 7 1012.7
20260902172327 88 221 12.0 24.0 0.00 0.00 0.00 7 1012.6
20260902171711 88 201 11.0 24.0 0.00 0.00 0.00 7 1012.7
20260902171354 88 247 11.0 24.0 0.00 0.00 0.00 7 1012.6
20260902171035 88 200 10.0 21.0 0.00 0.00 0.00 7 1012.6
20260902170714 87 252 11.0 21.0 0.00 0.00 0.00 7 1012.6
20260902170357 87 281 10.0 21.0 0.00 0.00 0.00 6 1012.6
20260902170042 87 235 10.0 21.0 0.00 0.00 0.00 7 1012.6
20260902165719 87 258 9.0 21.0 0.00 0.00 0.00 7 1012.6
20260902165404 87 198 9.0 20.0 0.00 0.00 0.00 7 1012.6
20260902165043 87 250 9.0 19.0 0.00 0.00 0.00 8 1012.6
20260902164724 86 243 10.0 19.0 0.00 0.00 0.00 7 1012.6
20260902164104 86 244 10.0 19.0 0.00 0.00 0.00 8 1012.6
20260902163738 86 211 10.0 19.0 0.00 0.00 0.00 8 1012.6
20260902163419 86 227 9.0 19.0 0.00 0.00 0.00 8 1012.7
20260902162801 85 225 8.0 18.0 0.00 0.00 0.00 9 1012.6
20260902162445 85 234 8.0 18.0 0.00 0.00 0.00 9 1012.6
20260902162125 85 234 7.0 18.0 0.00 0.00 0.00 9 1012.5
20260902161800 85 275 7.0 18.0 0.00 0.00 0.00 9 1012.5
20260902161438 85 251 7.0 18.0 0.00 0.00 0.00 9 1012.5
20260902161111 84 259 7.0 16.0 0.00 0.00 0.00 9 1012.5
20260902160752 84 173 7.0 16.0 0.00 0.00 0.00 10 1012.6
20260902160432 84 248 8.0 16.0 0.00 0.00 0.00 10 1012.5
20260902160112 84 257 8.0 16.0 0.00 0.00 0.00 10 1012.7
20260902155758 84 250 7.0 16.0 0.00 0.00 0.00 9 1012.6
20260902155439 84 193 6.0 14.0 0.00 0.00 0.00 10 1012.6
20260902155119 84 231 6.0 14.0 0.00 0.00 0.00 10 1012.6
20260902154804 83 238 6.0 14.0 0.00 0.00 0.00 10 1012.5
20260902154443 83 239 6.0 14.0 0.00 0.00 0.00 10 1012.5
20260902154128 83 209 6.0 16.0 0.00 0.00 0.00 11 1012.5
20260902153807 83 213 6.0 16.0 0.00 0.00 0.00 11 1012.4
20260902153442 83 194 6.0 16.0 0.00 0.00 0.00 11 1012.4
20260902152826 82 219 7.0 16.0 0.00 0.00 0.00 11 1012.3
20260902152510 82 213 7.0 16.0 0.00 0.00 0.00 12 1012.2
20260902152146 82 202 7.0 17.0 0.00 0.00 0.00 11 1012.2
20260902151830 81 167 8.0 17.0 0.00 0.00 0.00 12 1012.1
20260902151511 81 192 8.0 17.0 0.00 0.00 0.00 12 1012.2
20260902151145 81 224 8.0 17.0 0.00 0.00 0.00 12 1012.2
20260902150830 81 261 7.0 17.0 0.00 0.00 0.00 11 1012.2
20260902150506 81 242 8.0 17.0 0.00 0.00 0.00 12 1012.2
20260902145846 80 257 7.0 16.0 0.00 0.00 0.00 12 1012.4
20260902145528 80 205 7.0 16.0 0.00 0.00 0.00 12 1012.2
20260902145206 80 188 6.0 15.0 0.00 0.00 0.00 12 1012.2
20260902144849 80 183 5.0 15.0 0.00 0.00 0.00 12 1012.2
20260902144527 79 196 4.0 14.0 0.00 0.00 0.00 12 1012.3
20260902144208 79 218 4.0 14.0 0.00 0.00 0.00 13 1012.2
20260902143551 79 205 6.0 14.0 0.00 0.00 0.00 12 1012.1
20260902143228 78 190 5.0 14.0 0.00 0.00 0.00 13 1012.1
20260902142911 78 240 4.0 14.0 0.00 0.00 0.00 13 1012.1
20260902142553 77 237 4.0 11.0 0.00 0.00 0.00 14 1012.1
20260902142238 77 206 4.0 11.0 0.00 0.00 0.00 14 1012.1
20260902141921 76 120 4.0 11.0 0.00 0.00 0.00 14 1012.0
20260902141605 76 229 4.0 10.0 0.00 0.00 0.00 15 1012.1
20260902141247 76 151 5.0 10.0 0.00 0.00 0.00 15 1012.1
20260902140932 76 162 5.0 10.0 0.00 0.00 0.00 15 1012.1
20260902140614 76 141 4.0 10.0 0.00 0.00 0.00 15 1012.0
20260902140257 76 159 5.0 10.0 0.00 0.00 0.00 14 1012.1
20260902135942 75 144 4.0 10.0 0.00 0.00 0.00 14 1012.1
20260902135325 75 165 4.0 10.0 0.00 0.00 0.00 14 1012.0
20260902134404 75 200 3.0 12.0 0.00 0.00 0.00 14 1012.0
20260902134048 75 182 4.0 12.0 0.00 0.00 0.00 14 1012.0
20260902133723 74 146 5.0 16.0 0.00 0.00 0.00 15 1011.9
20260902133356 74 157 4.0 16.0 0.00 0.00 0.00 15 1011.7
20260902133034 74 204 5.0 16.0 0.00 0.00 0.00 14 1011.7
20260902132715 75 165 6.0 16.0 0.00 0.00 0.00 16 1011.7
20260902132348 75 207 7.0 16.0 0.00 0.00 0.00 14 1011.6
20260902132022 74 250 7.0 16.0 0.00 0.00 0.00 14 1011.5
20260902131704 74 191 6.0 14.0 0.00 0.00 0.00 14 1011.5
20260902131043 74 225 6.0 13.0 0.00 0.00 0.00 15 1011.4
20260902130720 74 184 7.0 13.0 0.00 0.00 0.00 15 1011.3
20260902130356 74 186 6.0 14.0 0.00 0.00 0.00 15 1011.4
20260902130041 74 202 6.0 14.0 0.00 0.00 0.00 15 1011.4
20260902125718 74 206 5.0 14.0 0.00 0.00 0.00 15 1011.4
20260902125403 74 207 5.0 14.0 0.00 0.00 0.00 15 1011.4
20260902125042 74 202 4.0 14.0 0.00 0.00 0.00 15 1011.3
20260902124723 74 169 4.0 14.0 0.00 0.00 0.00 15 1011.4
20260902123206 74 181 5.0 12.0 0.00 0.00 0.00 15 1011.3
20260902122842 74 194 5.0 13.0 0.00 0.00 0.00 15 1011.3
20260902122226 74 186 5.0 13.0 0.00 0.00 0.00 15 1011.2
20260902121906 74 166 4.0 13.0 0.00 0.00 0.00 16 1011.2
20260902121551 74 158 4.0 13.0 0.00 0.00 0.00 15 1011.2
20260902121232 74 169 4.0 13.0 0.00 0.00 0.00 15 1011.2
20260902120915 74 190 4.0 9.0 0.00 0.00 0.00 15 1011.1
20260902120550 74 166 4.0 13.0 0.00 0.00 0.00 16 1011.1
20260902120236 74 187 5.0 13.0 0.00 0.00 0.00 16 1011.1
20260902115918 75 161 6.0 13.0 0.00 0.00 0.00 15 1011.2
20260902115558 75 178 7.0 13.0 0.00 0.00 0.00 16 1011.2
20260902115240 75 186 7.0 13.0 0.00 0.00 0.00 15 1011.0
20260902114923 75 171 7.0 13.0 0.00 0.00 0.00 15 1011.1
20260902114600 75 157 7.0 13.0 0.00 0.00 0.00 16 1011.1
20260902114244 75 159 7.0 13.0 0.00 0.00 0.00 15 1011.1
20260902113922 75 145 7.0 13.0 0.00 0.00 0.00 15 1011.0
20260902113601 75 156 6.0 14.0 0.00 0.00 0.00 16 1011.0
20260902113247 75 168 6.0 14.0 0.00 0.00 0.00 15 1011.0
20260902112925 75 212 6.0 14.0 0.00 0.00 0.00 15 1011.0
20260902112608 75 156 6.0 14.0 0.00 0.00 0.00 15 1011.0
20260902111952 75 145 6.0 14.0 0.00 0.00 0.00 15 1011.0
20260902111634 75 155 6.0 11.0 0.00 0.00 0.00 15 1011.0
20260902111312 75 168 6.0 11.0 0.00 0.00 0.00 15 1011.0
20260902110652 76 150 5.0 11.0 0.00 0.00 0.00 15 1011.2
20260902110336 76 144 5.0 11.0 0.00 0.00 0.00 14 1011.1
20260902110020 76 158 5.0 11.0 0.00 0.00 0.00 15 1011.1
20260902105656 76 153 5.0 11.0 0.00 0.00 0.00 14 1011.1
20260902104739 76 155 5.0 11.0 0.00 0.00 0.00 14 1011.1
20260902104419 76 168 5.0 11.0 0.00 0.00 0.00 14 1011.0
20260902104053 76 136 5.0 11.0 0.00 0.00 0.00 14 1011.2
20260902103733 77 153 5.0 11.0 0.00 0.00 0.00 14 1011.2
20260902103412 77 153 5.0 11.0 0.00 0.00 0.00 14 1011.2
20260902102757 77 169 5.0 11.0 0.00 0.00 0.00 14 1011.3
20260902102436 77 199 5.0 11.0 0.00 0.00 0.00 14 1011.3
20260902102113 77 173 4.0 9.0 0.00 0.00 0.00 14 1011.2
20260902101756 77 169 4.0 9.0 0.00 0.00 0.00 14 1011.3
20260902101434 77 174 4.0 9.0 0.00 0.00 0.00 14 1011.3
20260902101115 77 160 5.0 10.0 0.00 0.00 0.00 14 1011.3
20260902100750 78 157 5.0 10.0 0.00 0.00 0.00 13 1011.3
20260902095831 78 172 5.0 11.0 0.00 0.00 0.00 13 1011.3
20260902095516 78 200 5.0 11.0 0.00 0.00 0.00 13 1011.2
20260902095201 78 157 6.0 13.0 0.00 0.00 0.00 13 1011.1
20260902094541 78 213 5.0 13.0 0.00 0.00 0.00 13 1011.2
20260902094225 78 146 4.0 13.0 0.00 0.00 0.00 13 1011.3
20260902093906 78 207 5.0 13.0 0.00 0.00 0.00 13 1011.3
20260902093543 79 161 5.0 13.0 0.00 0.00 0.00 13 1011.3
20260902093224 79 190 5.0 13.0 0.00 0.00 0.00 13 1011.3
20260902092857 79 177 4.0 10.0 0.00 0.00 0.00 13 1011.4
20260902092542 79 182 3.0 10.0 0.00 0.00 0.00 13 1011.5
20260902092223 79 192 3.0 11.0 0.00 0.00 0.00 13 1011.4
20260902091902 79 187 3.0 11.0 0.00 0.00 0.00 13 1011.5
20260902091537 79 198 4.0 11.0 0.00 0.00 0.00 13 1011.4
20260902091212 79 263 4.0 14.0 0.00 0.00 0.00 13 1011.3
20260902090858 79 229 4.0 14.0 0.00 0.00 0.00 14 1011.3
20260902090540 79 207 4.0 14.0 0.00 0.00 0.00 13 1011.2
20260902085921 80 181 5.0 14.0 0.00 0.00 0.00 12 1011.3
20260902085556 80 182 5.0 14.0 0.00 0.00 0.00 12 1011.2
20260902085242 80 211 5.0 14.0 0.00 0.00 0.00 13 1011.2
20260902084919 80 171 6.0 14.0 0.00 0.00 0.00 12 1011.0
20260902084601 80 236 7.0 14.0 0.00 0.00 0.00 12 1011.0
20260902084238 80 220 6.0 22.0 0.00 0.00 0.00 12 1010.9
20260902083619 81 196 7.0 22.0 0.00 0.00 0.00 12 1010.9
20260902083254 80 207 8.0 22.0 0.00 0.00 0.00 12 1011.0
20260902082640 81 194 9.0 22.0 0.00 0.00 0.00 12 1011.2
20260902082319 81 229 7.0 17.0 0.00 0.00 0.00 12 1011.2
20260902082001 80 192 8.0 17.0 0.00 0.00 0.00 12 1011.2
20260902081646 80 194 7.0 17.0 0.00 0.00 0.00 12 1011.2
20260902081025 80 171 7.0 17.0 0.00 0.00 0.00 13 1011.1
20260902080706 80 199 6.0 13.0 0.00 0.00 0.00 13 1010.9
20260902080346 81 197 6.0 13.0 0.00 0.00 0.00 13 1011.1
20260902080021 81 199 6.0 13.0 0.00 0.00 0.00 12 1011.1
20260902075705 81 192 6.0 11.0 0.00 0.00 0.00 13 1011.1
20260902075349 82 224 6.0 17.0 0.00 0.00 0.00 12 1011.0
20260902075031 82 221 8.0 17.0 0.00 0.00 0.00 12 1011.0
20260902074713 82 175 10.0 17.0 0.00 0.00 0.00 12 1011.0
20260902074350 82 246 10.0 17.0 0.00 0.00 0.00 12 1011.0
20260902074034 82 223 11.0 17.0 0.00 0.00 0.00 12 1011.0
20260902073711 82 243 11.0 17.0 0.00 0.00 0.00 12 1010.9
20260902073349 82 234 10.0 16.0 0.00 0.00 0.00 12 1010.9
20260902073032 82 247 10.0 16.0 0.00 0.00 0.00 12 1010.9
20260902072709 82 240 10.0 20.0 0.00 0.00 0.00 12 1010.9
20260902072354 82 229 11.0 20.0 0.00 0.00 0.00 12 1010.8
20260902072032 82 243 10.0 20.0 0.00 0.00 0.00 12 1010.8
20260902071708 82 239 12.0 20.0 0.00 0.00 0.00 12 1010.7
20260902071347 82 255 12.0 20.0 0.00 0.00 0.00 12 1010.7
20260902071023 83 237 12.0 20.0 0.00 0.00 0.00 12 1010.6
20260902070700 82 217 11.0 19.0 0.00 0.00 0.00 12 1010.6
20260902070340 83 242 11.0 20.0 0.00 0.00 0.00 11 1010.6
20260902070020 83 180 11.0 20.0 0.00 0.00 0.00 11 1010.7
20260902065702 83 192 11.0 20.0 0.00 0.00 0.00 11 1010.6
20260902065340 83 245 12.0 20.0 0.00 0.00 0.00 11 1010.7
20260902064414 83 256 11.0 20.0 0.00 0.00 0.00 11 1010.5
20260902064054 83 250 11.0 20.0 0.00 0.00 0.00 11 1010.5
20260902063429 83 250 11.0 17.0 0.00 0.00 0.00 10 1010.5
20260902063106 83 257 10.0 17.0 0.00 0.00 0.00 10 1010.5
20260902062745 83 240 9.0 17.0 0.00 0.00 0.00 10 1010.5
20260902062418 83 259 9.0 17.0 0.00 0.00 0.00 10 1010.4
20260902061752 83 256 9.0 17.0 0.00 0.00 0.00 10 1010.3
20260902061431 84 254 9.0 17.0 0.00 0.00 0.00 10 1010.3
20260902061109 84 225 9.0 16.0 0.00 0.00 0.00 10 1010.4
20260902060753 84 239 8.0 16.0 0.00 0.00 0.00 10 1010.3
20260902060434 84 243 8.0 15.0 0.00 0.00 0.00 11 1010.4
20260902055809 84 209 7.0 15.0 0.00 0.00 0.00 11 1010.3
20260902055448 84 269 8.0 15.0 0.00 0.00 0.00 11 1010.3
20260902055125 84 220 8.0 15.0 0.00 0.00 0.00 11 1010.4
20260902054507 84 247 8.0 18.0 0.00 0.00 0.00 11 1010.3
20260902053849 84 186 8.0 18.0 0.00 0.00 0.00 11 1010.3
20260902053228 84 177 9.0 18.0 0.00 0.00 0.00 11 1010.3
20260902052905 85 271 10.0 17.0 0.00 0.00 0.00 11 1010.3
20260902052543 85 240 10.0 16.0 0.00 0.00 0.00 11 1010.2
20260902052221 85 221 9.0 16.0 0.00 0.00 0.00 11 1010.2
20260902051900 85 226 8.0 16.0 0.00 0.00 0.00 11 1010.1
20260902051536 85 246 8.0 16.0 0.00 0.00 0.00 11 1010.1
20260902051220 85 237 9.0 16.0 0.00 0.00 0.00 11 1010.2
20260902050558 85 235 9.0 16.0 0.00 0.00 0.00 11 1010.2
20260902050237 85 232 8.0 18.0 0.00 0.00 0.00 11 1010.2
20260902045622 86 271 9.0 18.0 0.00 0.00 0.00 11 1010.1